Weather History for Osoyoos, British Columbia

Change the Weather History Date:

Saturday, October 19, 2013

  Actual Average Record
Temperature  
Mean Temperature 46 °F -  
Max Temperature 60 °F - - ()
Min Temperature 32 °F - - ()
Degree Days  
Heating Degree Days 19    
Moisture  
Dew Point 39 °F    
Average Humidity 82    
Maximum Humidity 99    
Minimum Humidity 43    
Precipitation  
Precipitation 0.00 in - - ()
Sea Level Pressure  
Sea Level Pressure 30.18 in    
Wind  
Wind Speed 1 mph ()    
Max Wind Speed 4 mph    
Max Gust Speed -    
T = Trace of Precipitation, MM = Missing Value Source: Averaged Metar Reports

Daily Weather History Graph

Daily Weather History Graph

Search for Another Location

Airport:

Trip Planner

Search our weather history database for the weather conditions in past years. The results will help you decide how hot, cold, wet, or windy it might be!

Date:

Astronomy

Oct. 19, 2013 Rise Set
Actual Time 7:25 AM PDT 5:59 PM PDT
Civil Twilight 6:52 AM PDT 6:31 PM PDT
Nautical Twilight 6:16 AM PDT 7:08 PM PDT
Astronomical Twilight 5:39 AM PDT 7:44 PM PDT
Moon 6:23 PM PDT (10/19) 8:13 AM PDT (10/19)
Length of Visible Light 11h 38m
Length of Day
10h 34m
Full, 99% of the Moon is Illuminated
Oct 19
Full
Oct 26
Last Quarter
Nov 3
New
Nov 9
First Quarter
Nov 17
Full

Hourly Weather History & Observations

Time (PDT) Temp. Dew Point Humidity Pressure Visibility Wind Dir Wind Speed Gust Speed Precip Events Conditions
12:00 AM 37.0 °F 35.8 °F 95% 30.20 in - Calm Calm - N/A   Unknown
1:00 AM 36.3 °F 35.4 °F 97% 30.21 in - ENE 1.2 mph - N/A   Unknown
2:00 AM 35.8 °F 34.9 °F 97% 30.20 in - ENE 1.2 mph - N/A   Unknown
3:00 AM 35.2 °F 34.5 °F 97% 30.20 in - SE 1.2 mph - N/A   Unknown
4:00 AM 35.1 °F 34.5 °F 98% 30.20 in - ENE 1.2 mph - N/A   Unknown
5:00 AM 33 °F 33 °F 98% 30.21 in - NE 1.2 mph - -  
5:00 AM 33.3 °F 31.3 °F 92% 30.21 in - NE 1.2 mph - N/A   Unknown
6:00 AM 36.5 °F 36.0 °F 98% 30.22 in - ENE 1.2 mph - N/A   Unknown
7:00 AM 34.0 °F 33.4 °F 98% 30.22 in - Calm Calm - N/A   Unknown
8:00 AM 34.5 °F 34.2 °F 99% 30.23 in - ENE 1.2 mph - N/A   Unknown
9:00 AM 40.3 °F 39.7 °F 98% 30.24 in - Calm Calm - N/A   Unknown
10:00 AM 43.3 °F 40.3 °F 89% 30.23 in - NNW 2.3 mph - N/A   Unknown
11:00 AM 48 °F 41 °F 68% 30.22 in - NW 1.2 mph - -  
11:00 AM 47.7 °F 40.8 °F 77% 30.22 in - NW 1.2 mph - N/A   Unknown
12:00 PM 49.6 °F 40.3 °F 70% 30.20 in - NW 3.5 mph - N/A   Unknown
1:00 PM 53.1 °F 41.2 °F 64% 30.17 in - NNW 2.3 mph - N/A   Unknown
2:00 PM 55.9 °F 41.7 °F 59% 30.14 in - NNE 2.3 mph - N/A   Unknown
3:00 PM 59.5 °F 42.6 °F 54% 30.13 in - WSW 1.2 mph - N/A   Unknown
4:00 PM 60.1 °F 42.4 °F 52% 30.12 in - NNW 2.3 mph - N/A   Unknown
5:00 PM 59 °F 42 °F 43% 30.12 in - North 2.3 mph - -  
5:00 PM 58.6 °F 42.4 °F 55% 30.12 in - North 2.3 mph - N/A   Unknown
6:00 PM 53.2 °F 44.2 °F 72% 30.13 in - NE 2.3 mph - N/A   Unknown
7:00 PM 46.8 °F 42.6 °F 85% 30.14 in - NE 2.3 mph - N/A   Unknown
8:00 PM 45.0 °F 42.4 °F 91% 30.14 in - NE 1.2 mph - N/A   Unknown
9:00 PM 46.0 °F 42.3 °F 87% 30.16 in - NE 1.2 mph - N/A   Unknown
10:00 PM 45.7 °F 42.4 °F 88% 30.17 in - SSE 1.2 mph - N/A   Unknown
11:00 PM 42 °F 40 °F 92% 30.17 in - NE 1.2 mph - -  
11:00 PM 42.1 °F 40.5 °F 94% 30.17 in - NE 1.2 mph - N/A   Unknown